Tracking 35237 objects as of 6-Sep-2026
HD Live streaming from Space Station
objects crossing your sky now

MINOTAUR-C DEB


MINOTAUR-C DEB is no longer on orbit


NORAD ID: 42993
Int'l Code: 2017-068G
Launch date: October 31, 2017
Source: United States (US)
Launch site: AIR FORCE WESTERN TEST RANGE (AFWTR)
Decay date: 2024-02-10

Note: This is SATELLITE DEBRIS
Your satellite tracking list
Your tracking list is empty




NASA's NSSDC Master Catalog

Two Line Element Set (TLE):
1 42993U 17068G   24038.78333932  .14424199  25484-5  47686-3 0  9990
2 42993  97.4289 163.4945 0010973 292.5632  67.4507 16.43764459348754
Source of the keplerian elements: AFSPC